Simultaneous Nadir Overpasses (SNOs) Predictions

Prediction of SNOs between LANDSAT-8 and NOAA-19 Satellite Orbit:

Table of predicted SNOs for the next 14.0 days since TLE Epoch: 9/1/2018
Index Date (LANDSAT-8) Time (LANDSAT-8) Lat,Lon (LANDSAT-8) SZA (LANDSAT-8 ) Date (NOAA-19) Time (NOAA-19) Lat,Lon (NOAA-19) SZA (NOAA-19 ) Distance(km) Time Diff (sec)
1 09/03/2018 08:52:49 77.91, 61.95 70.79 09/03/2018 08:52:56 77.90, 61.93 70.78 1.44 7
2 09/05/2018 14:26:34 -77.94, 158.62 108.35 09/05/2018 14:26:27 -77.94, 158.44 108.37 4.20 7
3 09/07/2018 20:00:18 77.94,-104.82 72.49 09/07/2018 20:00:01 77.91,-104.76 72.47 2.77 17
4 09/07/2018 20:49:46 -77.91, 62.69 107.53 09/07/2018 20:50:59 -77.88, 62.68 107.54 2.98 73
5 09/10/2018 01:34:03 -77.96, -8.15 106.63 09/10/2018 01:33:33 -77.95, -8.24 106.66 2.68 30
6 09/10/2018 02:23:30 77.90, 159.23 73.31 09/10/2018 02:24:33 77.89, 159.34 73.32 3.04 63
7 09/12/2018 07:07:47 77.95, 88.38 74.22 09/12/2018 07:07:06 77.94, 88.48 74.21 2.55 41
8 09/12/2018 07:57:15 -77.93,-104.09 105.80 09/12/2018 07:58:06 -77.94,-104.24 105.79 3.57 51
9 09/14/2018 12:41:32 -77.97,-174.94 104.89 09/14/2018 12:40:39 -77.97,-174.98 104.91 1.12 53




NCC Satellite Simultaneous Nadir Overpasses (SNOs) Prediction Service
